Date_and_time,latitude,longitude,wind_speed,RelWindDirFrom,WindDirFrom,air_pressure,air_temperature,relative_humidity,Temp,platform_speed_wrt_ground,air_pressure_at_mean_sea_level,platform_orientation
2019-08-26 23:50,50.63046,-96.9807816666667,11.4,13.4,5,975.82,18.5,88,20.37,0.0,1001.57,38.0
2019-08-27 00:00,50.63046,-96.9807816666667,8.6,11.7,358,975.81,18.5,88,20.41,0.0,1001.54,360.0
2019-08-27 00:10,50.63046,-96.9807816666667,6.6,7.8,354,975.84,18.6,86,20.39,0.0,1001.55,360.0
2019-08-27 00:20,50.6304583333333,-96.98078,5.5,7.0,2,975.93,18.7,85,20.25,0.0,1001.64,360.0
2019-08-27 00:30,50.630455,-96.9807833333333,6.2,8.0,14,975.93,18.5,87,20.16,0.0,1001.65,360.0
2019-08-27 00:40,50.6304566666667,-96.980775,10.9,16.0,1,975.94,18.0,91,20.16,0.0,1001.68,360.0
2019-08-27 00:50,50.6304583333333,-96.9807816666667,11.4,16.3,328,976.06,17.7,87,20.14,0.0,1001.81,360.0
2019-08-27 01:00,50.63046,-96.9807816666667,8.1,13.6,338,976.18,16.2,97,20.21,0.0,1002.00,0.0
2019-08-27 01:10,50.630455,-96.980765,5.9,8.6,317,976.33,15.8,98,20.21,0.0,1002.16,0.0
2019-08-27 01:20,50.6304566666667,-96.98077,6.4,11.0,303,976.30,15.6,98,20.20,0.0,1002.13,0.0
2019-08-27 01:30,50.6304566666667,-96.9807683333333,5.5,8.8,276,976.36,15.4,99,20.18,0.0,1002.23,0.0
2019-08-27 01:40,50.6304583333333,-96.9807683333333,5.2,7.8,273,976.30,15.3,100,20.18,0.0,1002.21,0.0
2019-08-27 01:50,50.63046,-96.9807716666667,5.2,9.1,282,976.20,15.3,100,20.18,0.0,1002.11,0.0
2019-08-27 02:00,50.63046,-96.9807733333333,5.5,9.6,283,976.19,15.4,100,20.18,0.0,1002.09,90.0
2019-08-27 02:10,50.63046,-96.9807716666667,5.8,8.1,304,976.10,15.6,100,20.18,0.0,1001.99,90.0
2019-08-27 02:20,50.63046,-96.9807716666667,6.1,9.5,310,976.05,15.7,100,20.18,0.0,1001.94,90.0
2019-08-27 02:30,50.63046,-96.9807716666667,5.2,8.3,328,976.16,15.9,100,20.18,0.0,1002.06,90.0
2019-08-27 02:40,50.6304583333333,-96.9807716666667,4.4,6.7,318,976.47,16.0,100,20.18,0.0,1002.40,90.0
2019-08-27 02:50,50.6304966666667,-96.9807933333333,4.8,7.5,319,976.36,16.0,100,20.17,0.0,1002.36,90.0
2019-08-27 03:00,50.6304683333333,-96.9807766666667,6.2,8.0,307,976.25,15.7,100,20.17,0.0,1002.27,36.6
2019-08-27 03:10,50.6304683333333,-96.980775,6.0,8.6,298,976.24,15.6,100,20.16,0.0,1002.27,36.6
2019-08-27 03:20,50.6304516666667,-96.9807783333333,5.5,8.9,302,976.34,15.4,100,20.13,0.0,1002.39,36.6
2019-08-27 03:30,50.6304616666667,-96.980775,5.3,7.2,291,976.50,15.3,100,20.11,0.0,1002.56,36.6
2019-08-27 03:40,50.630465,-96.9807716666667,4.2,7.1,281,976.60,15.2,100,20.10,0.0,1002.67,36.6
2019-08-27 03:50,50.630465,-96.9807716666667,4.1,5.9,271,976.65,15.0,100,20.10,0.0,1002.73,36.6
2019-08-27 04:00,50.6304633333333,-96.9807716666667,4.4,6.4,267,976.61,14.8,100,20.10,0.0,1002.69,54.7
2019-08-27 04:10,50.6304616666667,-96.9807716666667,4.4,6.5,272,976.53,14.7,100,20.11,0.0,1002.60,54.7
2019-08-27 04:20,50.6304616666667,-96.9807716666667,4.2,6.0,272,976.50,14.6,101,20.11,0.0,1002.57,54.7
2019-08-27 04:30,50.6304616666667,-96.9807733333333,4.5,6.6,271,976.43,14.5,101,20.11,0.0,1002.50,54.7
2019-08-27 04:40,50.6304733333333,-96.9807783333333,4.7,7.1,269,976.29,14.4,101,20.10,0.0,1002.36,54.7
2019-08-27 04:50,50.6304516666667,-96.9807766666667,4.6,7.1,274,976.32,14.3,101,20.08,0.0,1002.41,54.7
2019-08-27 05:00,50.6304366666667,-96.9807866666667,4.5,6.4,264,976.43,14.2,101,20.06,0.0,1002.53,207.4
2019-08-27 05:10,50.6304516666667,-96.9807833333333,4.5,7.3,274,976.19,14.2,101,20.06,0.0,1002.29,207.4
2019-08-27 05:20,50.630455,-96.9807833333333,4.4,6.7,278,976.08,14.1,101,20.07,0.0,1002.19,207.4
2019-08-27 05:30,50.6304566666667,-96.9807833333333,4.3,6.7,286,975.96,14.0,101,20.06,0.0,1002.07,207.4
2019-08-27 05:40,50.6304683333333,-96.98079,4.6,8.0,292,976.01,14.0,101,20.05,0.0,1002.14,207.4
2019-08-27 05:50,50.6304716666667,-96.9807916666667,4.3,7.3,288,975.95,14.1,101,20.04,0.0,1002.08,207.4
2019-08-27 06:00,50.6304683333333,-96.9807983333333,3.1,5.7,288,975.81,14.2,101,20.03,0.0,1001.93,270.0
2019-08-27 06:10,50.630455,-96.9807816666667,3.0,5.0,284,975.78,14.2,100,20.03,0.0,1001.90,270.0
2019-08-27 06:20,50.63045,-96.9807833333333,2.9,4.2,267,975.76,14.2,100,20.03,0.0,1001.90,270.0
2019-08-27 06:30,50.63045,-96.9807866666667,2.9,5.4,284,975.65,14.1,100,20.02,0.0,1001.79,270.0
2019-08-27 06:40,50.63045,-96.9807833333333,2.7,3.9,297,975.57,14.1,100,20.01,0.0,1001.71,270.0
2019-08-27 06:50,50.63039,-96.9807466666667,2.7,3.9,283,975.49,14.0,100,20.00,0.0,1001.64,270.0
2019-08-27 07:00,50.6304466666667,-96.9807716666667,2.6,4.0,269,975.35,13.9,100,20.00,0.0,1001.50,360.0
2019-08-27 07:10,50.6304533333333,-96.9807716666667,2.8,4.9,267,975.17,13.7,100,20.00,0.0,1001.32,360.0
2019-08-27 07:20,50.630465,-96.980785,2.5,3.8,283,975.09,13.6,100,19.99,0.0,1001.25,360.0
2019-08-27 07:30,50.6304616666667,-96.9807783333333,3.0,4.8,291,975.07,13.6,100,19.99,0.0,1001.23,360.0
2019-08-27 07:40,50.6304616666667,-96.98078,3.8,5.3,306,975.08,13.7,100,19.99,0.0,1001.24,360.0
2019-08-27 07:50,50.6304633333333,-96.98078,3.8,5.6,306,975.09,13.7,100,19.99,0.0,1001.24,360.0
2019-08-27 08:00,50.6304633333333,-96.9807783333333,3.3,7.2,279,975.04,13.6,100,19.99,0.0,1001.19,360.0
2019-08-27 08:10,50.6304716666667,-96.9807333333333,3.2,6.2,280,975.01,13.6,100,19.98,0.0,1001.16,360.0
2019-08-27 08:20,50.630465,-96.980815,4.3,7.7,299,974.96,13.5,100,19.97,0.0,1001.12,360.0
2019-08-27 08:30,50.6304416666667,-96.9807866666667,3.4,5.2,286,975.02,13.5,100,19.97,0.0,1001.18,360.0
2019-08-27 08:40,50.630455,-96.980785,3.0,5.4,276,974.95,13.4,100,19.95,0.0,1001.11,360.0
2019-08-27 08:50,50.6304533333333,-96.980785,3.5,5.7,282,974.79,13.5,100,19.93,0.0,1000.96,360.0
2019-08-27 09:00,50.630455,-96.9807866666667,4.0,7.0,276,974.67,13.4,100,19.93,0.0,1000.84,360.0
2019-08-27 09:10,50.6304566666667,-96.980785,4.8,9.3,287,974.59,13.5,100,19.92,0.0,1000.76,360.0
2019-08-27 09:20,50.6304583333333,-96.9807816666667,5.4,10.0,292,974.55,13.5,99,19.92,0.0,1000.72,360.0
2019-08-27 09:30,50.6304583333333,-96.98078,5.9,9.6,288,974.54,13.4,99,19.91,0.0,1000.72,360.0
2019-08-27 09:40,50.6304566666667,-96.98078,5.3,8.9,283,974.55,13.2,99,19.91,0.0,1000.73,360.0
2019-08-27 09:50,50.6304583333333,-96.980725,5.2,9.4,281,974.52,13.1,99,19.90,0.0,1000.71,360.0
2019-08-27 10:00,50.630445,-96.98077,6.2,10.2,290,974.48,13.0,99,19.89,0.0,1000.68,167.4
2019-08-27 10:10,50.6304433333333,-96.980765,6.1,10.9,293,974.43,12.8,99,19.88,0.0,1000.63,167.4
2019-08-27 10:20,50.6304566666667,-96.9807816666667,6.2,12.8,293,974.33,12.6,99,19.87,0.0,1000.54,167.4
2019-08-27 10:30,50.63045,-96.98077,6.2,10.2,288,974.31,12.4,99,19.86,0.0,1000.53,167.4
2019-08-27 10:40,50.6304516666667,-96.9807833333333,5.5,9.7,280,974.33,12.3,100,19.84,0.0,1000.56,167.4
2019-08-27 10:50,50.63045,-96.9807766666667,6.6,10.8,285,974.34,12.2,99,19.83,0.0,1000.57,167.4
2019-08-27 11:00,50.63045,-96.9807716666667,7.2,12.7,292,974.32,12.1,99,19.82,0.0,1000.56,143.4
2019-08-27 11:10,50.63045,-96.98077,5.5,9.6,288,974.33,11.9,99,19.80,0.0,1000.58,143.4
2019-08-27 11:20,50.6304516666667,-96.98077,7.4,13.8,288,974.28,11.7,99,19.80,0.0,1000.53,143.4
2019-08-27 11:30,50.6304516666667,-96.98077,6.9,10.8,288,974.26,11.5,97,19.80,0.0,1000.53,143.4
2019-08-27 11:40,50.6304533333333,-96.98077,7.0,13.4,290,974.23,11.2,96,19.80,0.0,1000.52,143.4
2019-08-27 11:50,50.6304533333333,-96.98077,6.4,9.8,288,974.23,11.0,96,19.80,0.0,1000.54,143.4
2019-08-27 12:00,50.6304533333333,-96.98077,6.1,11.0,283,974.26,10.9,96,19.79,0.0,1000.58,90.0
2019-08-27 12:10,50.6304533333333,-96.98077,8.0,13.4,292,974.25,10.8,93,19.79,0.0,1000.59,90.0
2019-08-27 12:20,50.6304533333333,-96.98077,6.9,12.3,287,974.28,10.7,93,19.79,0.0,1000.63,90.0
2019-08-27 12:30,50.6304533333333,-96.98077,7.7,12.7,289,974.23,10.7,92,19.79,0.0,1000.58,90.0
2019-08-27 12:40,50.6304533333333,-96.98077,7.5,12.6,287,974.24,10.8,93,19.79,0.0,1000.60,90.0
2019-08-27 12:50,50.6304533333333,-96.9807683333333,8.3,14.0,293,974.17,10.9,92,19.78,0.0,1000.52,90.0
2019-08-27 13:00,50.6304533333333,-96.9807683333333,8.6,14.2,290,974.21,11.0,92,19.77,0.0,1000.57,360.0
2019-08-27 13:10,50.6304533333333,-96.9807683333333,9.1,14.3,283,974.19,11.2,91,19.76,0.0,1000.55,360.0
2019-08-27 13:20,50.630455,-96.9807683333333,9.9,18.0,285,974.06,11.3,88,19.76,0.0,1000.42,360.0
2019-08-27 13:30,50.6304633333333,-96.9807716666667,10.3,16.4,286,974.02,11.4,86,19.75,0.0,1000.38,360.0
2019-08-27 13:40,50.63044,-96.9807766666667,11.2,20.1,288,973.92,11.6,83,19.73,0.0,1000.29,360.0
2019-08-27 13:50,50.6304466666667,-96.980775,11.0,17.7,283,973.90,11.7,81,19.72,0.0,1000.27,360.0
2019-08-27 14:00,50.6304533333333,-96.9807966666667,10.5,17.1,288,973.85,11.8,80,19.70,0.0,1000.21,270.0
2019-08-27 14:10,50.630445,-96.98077,13.3,20.9,282,973.79,11.8,79,19.67,0.0,1000.16,270.0
2019-08-27 14:20,50.6304483333333,-96.980775,11.5,20.1,289,973.79,11.9,79,19.65,0.0,1000.15,270.0
2019-08-27 14:30,50.6304466666667,-96.980775,12.7,20.5,286,973.72,11.8,79,19.64,0.0,1000.08,270.0
2019-08-27 14:40,50.6304483333333,-96.9807766666667,10.9,18.4,288,973.75,11.9,80,19.62,0.0,1000.10,270.0
2019-08-27 14:50,50.6304483333333,-96.9807766666667,14.2,24.4,291,973.52,12.0,79,19.60,0.0,999.85,270.0
2019-08-27 15:00,50.6304483333333,-96.9807766666667,12.1,21.2,284,973.64,12.0,79,19.58,0.0,999.97,228.3
2019-08-27 15:10,50.6304483333333,-96.9807783333333,12.6,18.9,286,973.55,12.2,78,19.58,0.0,999.87,228.3
2019-08-27 15:20,50.6304483333333,-96.98078,10.5,19.6,290,973.73,12.2,79,19.56,0.0,1000.04,228.3
2019-08-27 15:30,50.6304283333333,-96.980775,11.9,21.6,291,973.68,11.9,82,19.54,0.0,999.99,228.3
2019-08-27 15:40,50.630395,-96.9808283333333,11.4,20.4,287,973.77,11.5,87,19.53,0.0,1000.10,228.3
2019-08-27 15:50,50.63044,-96.9807866666667,11.6,19.5,280,973.75,11.6,86,19.52,0.0,1000.07,228.3
2019-08-27 16:00,50.630435,-96.9807866666667,13.6,22.7,287,973.72,11.7,85,19.53,0.0,1000.04,228.4
2019-08-27 16:10,50.6304333333333,-96.9807983333333,12.9,20.9,282,973.76,11.6,85,19.53,0.0,1000.09,228.4
2019-08-27 16:20,50.6304483333333,-96.9808,14.1,22.6,286,973.77,11.4,89,19.52,0.0,1000.11,228.4
2019-08-27 16:30,50.63045,-96.9807966666667,13.1,20.7,288,973.83,11.3,87,19.48,0.0,1000.16,228.4
2019-08-27 16:40,50.63043,-96.9807783333333,10.0,16.9,276,974.02,11.4,91,19.46,0.0,1000.35,228.4
2019-08-27 16:50,50.6304583333333,-96.9807866666667,10.9,20.6,272,974.07,10.9,96,19.46,0.0,1000.42,228.4
2019-08-27 17:00,50.63045,-96.9807883333333,10.1,17.3,279,974.00,11.1,95,19.48,0.0,1000.33,90.0
2019-08-27 17:10,50.63045,-96.98079,11.5,18.3,280,973.93,11.2,93,19.49,0.0,1000.26,90.0
2019-08-27 17:20,50.6304483333333,-96.9807866666667,12.4,21.1,275,973.85,11.3,88,19.50,0.0,1000.19,90.0
2019-08-27 17:30,50.6304433333333,-96.98079,11.5,20.7,281,973.83,11.6,83,19.50,0.0,1000.17,90.0
2019-08-27 17:40,50.630435,-96.9807766666667,11.7,21.2,287,973.83,11.8,80,19.47,0.0,1000.15,90.0
2019-08-27 17:50,50.6304433333333,-96.980785,12.8,21.7,290,973.80,11.9,81,19.45,0.0,1000.12,90.0
2019-08-27 18:00,50.630455,-96.9807716666667,13.0,19.4,296,973.69,12.1,78,19.42,0.0,1000.00,38.0
2019-08-27 18:10,50.630445,-96.9807633333333,14.0,22.2,286,973.76,12.2,76,19.41,0.0,1000.08,38.0
2019-08-27 18:20,50.63044,-96.9807933333333,13.4,21.4,289,973.81,12.4,72,19.41,0.0,1000.12,38.0
2019-08-27 18:30,50.6304516666667,-96.98079,14.3,22.6,288,973.85,12.5,71,19.40,0.0,1000.16,38.0
2019-08-27 18:40,50.6304416666667,-96.980785,18.0,30.2,294,973.73,12.1,73,19.39,0.0,1000.07,38.0
2019-08-27 18:50,50.6304433333333,-96.9807833333333,16.1,28.8,296,973.87,12.0,72,19.38,0.0,1000.21,38.0
2019-08-27 19:00,50.6304483333333,-96.9807716666667,12.4,21.2,293,974.14,12.2,71,19.37,0.0,1000.47,49.4
2019-08-27 19:10,50.6304466666667,-96.980785,14.3,25.6,295,974.13,12.1,72,19.35,0.0,1000.46,49.4
2019-08-27 19:20,50.6304516666667,-96.9807783333333,15.6,25.0,292,974.04,11.9,73,19.34,0.0,1000.36,49.4
2019-08-27 19:30,50.630455,-96.9807783333333,14.4,24.2,286,974.22,11.9,73,19.32,0.0,1000.54,49.4
2019-08-27 19:40,50.6304466666667,-96.9807816666667,15.8,27.0,290,974.18,11.6,75,19.31,0.0,1000.52,49.4
2019-08-27 19:50,50.63045,-96.9807816666667,12.3,22.6,294,974.44,11.4,78,19.31,0.0,1000.78,49.4
2019-08-27 20:00,50.6304483333333,-96.9807816666667,13.7,23.6,287,974.48,11.1,82,19.30,0.0,1000.83,167.4
2019-08-27 20:10,50.63045,-96.98078,9.7,18.4,283,974.68,10.8,87,19.29,0.0,1001.04,167.4
2019-08-27 20:20,50.6304483333333,-96.98078,11.1,19.8,275,974.72,10.5,93,19.29,0.0,1001.09,167.4
2019-08-27 20:30,50.6304483333333,-96.9807766666667,9.9,18.5,278,974.78,10.4,97,19.28,0.0,1001.17,167.4
2019-08-27 20:40,50.6304616666667,-96.9807683333333,10.7,19.2,283,974.80,10.5,96,19.26,0.0,1001.20,167.4
2019-08-27 20:50,50.63046,-96.9807716666667,11.5,19.4,285,974.82,10.5,94,19.26,0.0,1001.20,167.4
2019-08-27 21:00,50.6304566666667,-96.9807733333333,13.3,27.4,286,974.78,10.4,94,19.26,0.0,1001.18,0.0
2019-08-27 21:10,50.630455,-96.9807716666667,11.0,18.3,284,974.90,10.4,95,19.24,0.0,1001.30,0.0
2019-08-27 21:20,50.6304533333333,-96.98077,11.8,21.4,286,974.85,10.4,95,19.27,0.0,1001.26,0.0
2019-08-27 21:30,50.63045,-96.9807683333333,12.3,21.9,287,974.79,10.4,96,19.27,0.0,1001.20,0.0
2019-08-27 21:40,50.63045,-96.9807683333333,12.8,19.8,285,974.82,10.6,95,19.26,0.0,1001.25,0.0
2019-08-27 21:50,50.63045,-96.9807816666667,12.7,23.2,284,974.88,10.7,96,19.24,0.0,1001.31,0.0
2019-08-27 22:00,50.63045,-96.9807716666667,11.7,20.2,284,974.98,10.7,96,19.23,0.0,1001.43,360.0
2019-08-27 22:10,50.6304433333333,-96.9807716666667,10.9,19.5,285,975.04,10.8,97,19.23,0.0,1001.50,360.0
2019-08-27 22:20,50.6304416666667,-96.980775,12.3,21.2,286,975.00,10.9,96,19.20,0.0,1001.46,360.0
2019-08-27 22:30,50.6304416666667,-96.9807783333333,12.9,24.1,287,975.08,11.0,94,19.16,0.0,1001.53,360.0
2019-08-27 22:40,50.6304416666667,-96.980775,12.2,21.8,288,975.19,11.0,95,19.14,0.0,1001.65,360.0
2019-08-27 22:50,50.6304416666667,-96.980775,12.2,22.1,290,975.29,10.9,95,19.12,0.0,1001.75,360.0
2019-08-27 23:00,50.6304416666667,-96.9807766666667,12.3,18.8,290,975.38,10.9,95,19.15,0.0,1001.85,125.3
2019-08-27 23:10,50.6304433333333,-96.9807766666667,14.0,25.1,288,975.41,10.8,95,19.16,0.0,1001.88,125.3
2019-08-27 23:20,50.6304433333333,-96.980775,14.0,22.9,289,975.55,10.7,96,19.17,0.0,1002.04,125.3
2019-08-27 23:30,50.6304433333333,-96.980775,12.2,22.0,292,975.66,10.6,97,19.17,0.0,1002.14,125.3
